EHI
0 0 0 0 0 0 0 0 0 0 0 0 0 0 0 0 0 0 0 0 0 1 2 2 3 3 3 4 5 5 6 7 9 9 9 8 5 2 1 1 3 4 4 2 1 1 3 4 4
0 0 0 0 0 0 0 0 0 0 0 0 0 0 0 0 0 0 0 0 0 0 1 1 2 2 2 3 3 3 4 5 7 8 8 8 6 3 1 1 2 4 4 3 2 2 3 4 3
0 0 0 0 0 0 0 0 0 0 0 0 0 0 0 0 0 0 0 0 0 0 0 0 1 1 1 1 1 1 1 2 4 6 5 6 6 4 2 1 1 3 5 5 3 2 2 2 1
0 0 0 0 0 0 0 0 0 0 0 0 0 0 0 0 0 0 0 0 0 0 0 0 0 0 0 0 0 0 0 0 2 3 4 3 3 3 2 1 1 2 5 6 5 4 3 1 0
0 0 0 0 0 0 0 0 0 0 0 0 0 0 0 0 0 0 0 0 0 0 0 1 1 1 1 1 0 0 1 0 0 1 3 3 3 3 2 2 3 4 5 5 5 5 4 1 0
0 0 0 0 0 0 0 0 0 0 0 0 0 0 0 0 0 0 0 0 0 0 0 1 1 1 1 1 0 1 2 1 0 0 1 2 4 4 3 3 4 6 6 5 4 5 4 1 0
0 0 0 0 0 0 0 0 0 0 0 0 0 0 0 0 0 1 1 0 0 0 0 0 0 0 1 1 0 1 2 2 1 0 0 1 3 5 4 3 4 6 7 5 5 4 3 2 1
0 0 0 0 0 0 0 0 0 0 0 0 0 0 0 0 1 2 2 1 0 0 0 0 0 0 0 0 0 0 1 1 1 1 0 1 2 3 3 2 3 5 6 5 5 4 3 1 0
0 0 0 0 0 0 0 0 0 0 0 0 0 0 0 1 2 3 3 2 0 0 0 0 0 0 0 0 0 0 0 0 0 0 0 0 1 1 1 0 1 2 3 4 4 4 2 1 0
0 0 0 0 0 0 0 0 0 0 0 0 0 0 0 2 3 3 3 1 0 0 0 0 0 0 0 0 0 0 0 0 0 0 0 0 0 0 0 0 0 0 1 2 2 2 1 0 0
0 0 0 0 0 0 0 0 0 0 0 0 0 0 0 1 2 2 2 1 0 0 0 0 0 0 0 0 0 0 0 0 0 0 0 0 0 0 0 0 0 0 0 1 1 1 0 0 0
0 0 0 0 0 0 0 0 0 0 0 0 0 0 0 0 1 1 1 0 0 0 0 0 0 0 0 0 0 0 0 0 0 0 0 0 0 0 0 0 0 0 0 0 0 0 0 0 0
0 0 0 0 0 0 0 0 0 0 0 0 0 0 0 0 0 0 0 0 0 0 0 0 0 0 0 0 0 0 0 0 0 0 0 0 0 0 0 0 0 0 0 0 0 0 0 0 0
0 0 0 0 0 0 0 0 0 0 0 0 0 0 0 0 0 0 0 0 0 0 0 0 0 0 0 0 0 0 0 0 0 0 0 0 0 0 0 0 0 0 0 0 0 0 0 0 0
0 0 0 0 0 0 0 0 0 0 0 0 0 0 0 0 0 0 0 0 0 0 0 0 0 0 0 0 0 0 0 0 0 0 0 0 0 0 0 0 0 0 0 0 0 0 0 0 0
0 0 0 0 0 0 0 0 0 0 0 0 0 0 0 0 0 0 0 0 0 0 0 0 0 0 0 0 0 0 0 0 0 0 0 0 0 0 0 0 0 0 0 0 0 0 0 0 0
0 0 0 0 0 0 0 0 0 0 0 0 0 0 0 0 0 0 0 0 0 0 0 0 0 0 0 0 0 0 0 0 0 0 0 0 0 0 0 0 0 0 0 0 0 0 0 0 0
0 0 0 0 0 0 0 0 0 0 0 0 0 0 0 0 0 0 0 0 0 0 0 0 0 0 0 0 0 0 0 0 0 0 0 0 0 0 0 0 0 0 0 0 0 0 0 0 0
0 0 0 0 0 0 0 0 0 0 0 0 0 0 0 0 0 0 0 0 0 0 0 0 0 0 0 0 0 0 0 0 0 0 0 0 0 0 0 0 0 0 0 0 0 0 0 0 0
0 0 0 0 0 0 0 0 0 0 0 0 0 0 0 0 0 0 0 0 0 0 0 0 0 0 0 0 0 0 0 0 0 0 0 0 0 0 0 0 0 0 0 0 0 0 0 0 0
0 0 0 0 0 0 0 0 0 0 0 0 0 0 0 0 0 0 0 0 0 0 0 0 0 0 0 0 0 0 0 0 0 0 0 0 0 0 0 0 0 0 0 0 0 0 0 0 0
0 0 0 0 0 0 0 0 0 0 0 0 0 0 0 0 0 0 0 0 0 0 0 0 0 0 0 0 0 0 0 0 0 0 0 0 0 0 0 0 0 0 0 0 0 0 0 0 0
0 0 0 0 0 0 0 0 0 0 0 0 0 0 0 0 0 0 0 0 0 0 0 0 0 0 0 0 0 0 0 0 0 0 0 0 0 0 0 0 0 0 0 0 0 0 0 0 0
0 0 0 0 0 0 0 0 0 0 0 0 0 0 0 0 0 0 0 0 0 0 0 0 0 0 0 0 0 0 0 0 0 0 0 0 0 0 0 0 0 0 0 0 0 0 0 0 0
0 0 0 0 0 0 0 0 0 0 0 0 0 0 0 0 0 0 0 0 0 0 0 0 0 0 0 0 0 0 0 0 0 0 0 0 0 0 0 0 0 0 0 0 0 0 0 0 0
0 0 0 0 0 0 0 0 0 0 0 0 0 0 0 0 0 0 0 0 0 0 0 0 0 0 0 0 0 0 0 0 0 0 0 0 0 0 0 0 0 0 0 0 0 0 0 0 0
0 0 0 0 0 0 0 0 0 0 0 0 0 0 0 0 0 0 0 0 0 0 0 0 0 0 0 0 0 0 0 0 0 0 0 0 0 0 0 0 0 0 0 0 0 0 0 0 0
0 0 0 0 0 0 0 0 0 0 0 0 0 0 0 0 0 0 0 0 0 0 0 0 0 0 0 0 0 0 0 0 0 0 0 0 0 0 0 0 0 0 0 0 0 0 0 0 0
0 0 0 0 0 0 0 0 0 0 0 0 0 0 0 0 0 0 0 0 0 0 0 0 0 0 0 0 0 0 0 0 0 0 0 0 0 0 0 0 0 0 0 0 0 0 0 0 0
0 0 0 0 0 0 0 0 0 0 0 0 0 0 0 0 0 0 0 0 0 0 0 0 0 0 0 0 0 0 0 0 0 0 0 0 0 0 0 0 0 0 0 0 0 0 0 0 0
Wind_Speed
6 3 2 5 7 5 1 3 2 1 1 0 1 2 5 4 3 2 0 2 3 1 2 2 2 3 4 5 6 6 6 6 6 6 6 5 5 5 5 6 6 6 7 7 8 8 9 9 9
2 2 5 6 5 1 4 3 3 2 1 2 3 3 3 2 1 2 1 3 3 2 2 2 2 3 4 5 5 6 6 6 5 5 5 5 5 5 4 5 5 5 6 6 7 8 8 8 8
2 4 5 5 4 5 4 2 3 1 1 1 2 3 2 1 1 0 1 2 2 3 3 2 3 4 4 5 5 5 5 5 5 5 5 4 5 4 4 4 4 5 5 6 6 7 7 7 8
3 5 6 5 3 4 3 2 1 1 2 2 2 2 1 2 1 1 1 2 3 3 3 3 4 4 5 5 5 4 5 4 5 4 4 4 4 4 3 3 4 4 5 5 6 6 6 7 7
5 5 4 1 3 3 2 2 1 1 1 1 2 2 0 2 2 2 2 3 3 3 3 3 5 5 5 5 5 5 4 4 4 5 4 4 4 4 3 3 3 4 4 5 5 6 7 7 7
5 5 4 3 3 2 2 1 1 1 1 1 2 2 1 2 2 2 3 3 3 3 4 4 5 6 5 5 5 6 5 5 4 4 5 5 4 4 3 3 3 3 4 5 5 6 6 7 7
5 4 3 3 2 2 2 0 2 1 1 0 1 3 1 1 1 2 3 4 4 4 4 4 4 5 7 7 7 6 6 6 5 5 5 5 5 4 3 3 3 3 3 4 5 5 6 6 7
4 5 2 2 3 3 1 1 1 2 1 1 2 3 2 2 1 3 4 4 4 4 4 4 4 4 4 4 7 7 7 7 7 7 7 7 7 6 5 3 3 3 3 3 5 5 6 6 6
4 4 3 4 5 2 0 1 2 2 3 2 1 0 1 2 4 4 4 4 3 4 3 3 3 4 3 3 5 6 6 7 6 6 7 6 4 4 4 5 4 3 3 3 4 5 5 6 5
4 3 5 3 3 2 0 1 0 2 2 1 2 3 2 3 3 3 2 1 1 2 2 2 3 3 3 3 3 3 3 4 4 4 4 3 3 3 4 5 5 4 3 3 4 5 4 4 2
3 4 2 1 1 1 1 1 1 2 0 2 2 1 1 2 2 2 1 1 0 1 2 2 2 2 2 2 2 2 2 2 3 4 4 3 3 2 3 2 2 3 3 2 3 4 2 2 2
2 1 1 1 0 1 1 1 1 1 3 1 2 3 2 2 2 2 1 0 1 1 1 2 2 2 2 2 2 2 2 2 2 3 3 3 2 2 2 2 2 2 2 2 2 2 2 2 2
1 1 1 1 1 1 2 1 1 2 2 1 2 2 2 1 1 1 1 0 0 0 1 1 2 2 2 2 2 2 1 1 1 2 2 3 2 2 2 2 2 2 2 2 1 1 2 2 2
1 0 1 2 1 0 1 1 1 3 0 2 2 1 0 1 1 0 0 0 0 1 0 1 1 2 2 2 1 1 1 1 1 2 2 2 1 1 1 2 2 2 2 1 1 1 2 1 2
1 1 3 1 1 1 1 3 3 2 2 2 1 1 2 2 1 1 2 1 1 1 0 1 1 2 2 2 2 1 1 1 1 1 2 2 2 2 2 2 2 2 1 1 1 2 2 2 2
2 2 2 3 0 1 2 6 3 1 2 0 1 2 2 3 2 2 2 1 1 0 1 1 2 2 2 2 1 1 1 2 1 1 1 2 2 2 2 1 1 1 1 1 1 1 2 2 2
2 1 3 4 1 1 2 6 3 1 1 1 2 2 2 3 4 3 3 1 0 1 1 2 2 2 2 2 2 2 2 2 2 2 2 2 2 2 2 1 1 1 1 2 1 1 1 1 1
3 3 3 4 2 1 3 7 5 2 2 3 3 2 2 3 4 4 3 2 1 1 2 2 2 2 2 1 1 2 3 2 2 2 2 2 2 2 2 1 2 2 1 2 2 1 2 1 1
2 2 5 5 2 2 5 8 8 4 3 3 3 3 3 3 3 3 3 3 2 3 3 2 2 2 2 1 0 0 1 1 1 1 2 2 2 2 2 1 1 1 1 1 1 1 1 1 1
1 3 4 5 2 1 4 8 6 4 4 4 4 4 3 2 3 3 3 3 3 2 2 1 1 1 1 0 0 0 0 1 1 1 2 2 2 2 1 2 1 1 1 2 1 1 1 1 1
3 4 4 4 4 2 3 6 4 3 2 1 2 2 2 2 2 3 3 3 2 2 1 0 0 1 1 1 1 2 1 1 1 2 2 2 2 1 1 1 1 1 0 0 0 1 1 0 0
4 2 3 3 2 3 0 5 5 3 2 2 2 2 2 2 1 2 2 3 2 2 2 2 1 1 1 1 1 2 1 0 1 1 1 2 2 1 1 1 0 0 0 0 0 0 1 1 1
2 1 1 2 2 3 2 3 7 1 3 4 4 3 3 2 1 2 2 2 2 2 2 2 2 1 1 1 0 1 0 1 1 1 1 2 2 2 1 1 0 0 0 1 1 0 1 1 1
1 2 2 2 1 4 4 4 7 3 4 3 3 3 3 2 1 2 3 3 3 3 3 2 2 2 1 1 0 0 0 1 1 2 2 2 1 1 2 1 1 1 1 1 1 1 1 1 1
3 3 3 4 2 6 2 4 8 4 3 3 3 3 2 1 1 2 4 4 4 4 3 3 2 2 1 1 1 0 1 1 1 2 2 2 1 2 2 2 2 2 2 2 1 1 2 2 2
1 4 4 3 4 5 3 6 7 3 3 2 1 0 1 1 1 2 2 2 3 3 3 3 3 3 2 1 1 1 1 1 1 2 2 2 2 2 2 2 2 2 2 2 1 1 2 1 2
2 2 2 3 1 4 6 6 7 3 4 4 3 2 2 2 2 2 2 2 3 3 3 3 3 3 3 2 2 2 1 2 2 2 2 2 2 2 2 2 2 2 2 2 1 1 2 1 2
2 4 3 2 1 4 6 5 5 3 4 4 3 3 3 3 3 3 3 3 3 3 3 3 3 3 3 2 2 2 2 2 2 2 3 3 3 3 2 2 2 2 2 2 2 1 2 2 2
1 2 2 2 3 3 5 7 4 4 3 4 4 3 3 3 3 3 3 3 3 3 3 3 3 3 3 3 2 2 2 2 2 2 3 3 3 2 3 3 3 2 2 2 2 2 2 2 2
2 3 4 3 4 3 4 8 2 2 2 2 3 3 3 3 3 3 3 3 3 3 3 3 3 3 3 3 2 2 2 2 2 3 3 3 3 3 3 2 3 3 3 2 3 3 3 3 3
Wind_Direction
351 4 59 56 56 54 226 246 234 259 236 7 47 106 128 132 156 179 339 2 5 358 341 337 47 78 85 80 74 68 67 69 68 69 72 77 83 87 98 105 107 114 116 114 112 110 111 109 107
346 18 53 60 90 123 259 245 230 235 191 100 56 66 86 80 46 67 2 338 5 14 5 0 44 98 94 86 78 71 67 66 67 67 65 71 81 87 90 102 107 111 117 117 117 114 111 112 113
24 48 78 78 121 183 221 226 220 290 44 86 71 46 89 99 51 21 325 345 25 25 13 6 73 99 94 88 80 75 71 67 68 68 63 69 73 82 89 99 108 111 114 121 119 116 115 114 115
64 48 57 81 197 221 222 255 233 24 29 53 104 78 41 18 346 313 25 51 55 31 19 19 70 87 84 80 78 72 70 66 61 62 62 67 67 70 81 86 106 115 115 122 124 122 119 118 116
58 75 71 63 238 250 256 275 211 130 54 42 110 124 39 0 19 58 68 67 69 42 25 28 53 72 77 74 71 64 62 60 58 55 54 56 59 61 71 81 103 113 126 126 125 130 127 124 122
58 69 103 210 239 271 278 277 136 104 100 70 118 134 210 15 44 64 71 59 56 53 36 34 47 55 64 64 60 54 52 51 50 48 47 45 48 54 69 75 97 101 108 121 126 132 131 130 130
104 106 164 191 217 267 274 12 125 119 97 287 158 132 257 347 20 74 68 59 53 48 40 29 34 45 53 57 55 51 47 44 40 37 38 36 38 47 57 63 79 96 110 119 122 125 128 129 133
118 111 142 196 196 241 294 55 78 112 156 30 98 145 223 260 90 78 63 52 49 42 37 28 30 40 42 44 47 47 45 42 39 35 34 36 33 30 36 33 51 79 91 118 128 128 127 128 126
88 90 192 208 194 224 358 70 17 53 97 51 50 20 280 109 100 85 59 38 34 30 23 25 32 35 38 44 42 39 40 37 37 32 30 31 25 20 18 19 35 53 66 88 117 125 120 119 118
92 154 214 209 187 178 84 95 87 63 50 38 34 22 59 103 115 108 93 68 29 1 359 16 27 32 39 40 35 28 35 33 32 31 25 21 21 19 22 17 25 37 44 68 88 97 100 98 95
125 183 212 239 175 145 122 31 34 113 253 219 206 198 95 121 121 130 134 145 240 323 5 12 20 30 49 40 38 28 28 32 30 30 28 26 24 14 15 14 15 17 34 50 59 58 55 81 88
125 246 227 263 15 82 144 128 47 179 234 234 167 151 139 147 170 187 191 213 11 32 15 12 21 37 45 48 46 43 33 31 30 29 31 33 24 16 9 25 21 29 30 43 53 70 62 78 93
167 262 326 349 41 87 100 140 199 248 270 49 91 111 141 169 234 241 175 122 62 26 349 14 36 45 49 51 34 45 37 32 30 35 32 43 34 26 29 28 26 32 36 48 59 77 82 79 91
200 237 306 320 327 336 151 261 183 248 126 73 73 75 215 231 248 336 29 147 213 238 279 38 60 57 59 60 48 34 34 32 40 37 35 39 52 53 46 46 33 25 30 37 65 98 95 79 89
112 36 336 305 213 214 112 303 223 224 109 75 26 342 333 313 316 265 243 220 223 225 124 90 89 68 68 60 43 39 35 39 41 28 29 45 61 64 63 55 39 16 23 40 64 64 88 89 79
61 60 303 297 185 199 144 262 252 150 109 40 315 331 330 318 310 297 290 265 239 135 86 61 65 62 58 55 42 41 40 48 34 28 35 46 52 56 63 55 32 12 34 55 72 81 85 91 96
42 254 259 294 291 122 178 253 255 251 163 244 277 296 310 319 325 325 327 289 219 131 101 73 62 66 57 53 40 47 48 45 37 32 34 40 47 49 61 54 30 31 49 52 52 64 87 108 107
230 241 262 267 301 332 253 262 274 249 217 234 255 274 296 308 302 320 349 356 39 73 81 74 66 55 54 57 45 46 44 32 35 34 24 42 48 47 56 57 35 42 57 50 54 60 53 93 120
193 222 266 270 292 287 257 270 278 264 236 246 255 259 272 285 306 351 12 21 40 50 59 63 67 51 60 60 78 47 4 359 12 16 16 29 41 44 53 47 45 44 66 62 61 68 58 37 41
201 249 269 291 324 276 276 276 271 256 229 226 233 245 252 294 341 357 9 22 36 39 47 57 70 69 62 41 189 191 240 309 319 355 7 12 24 26 41 50 45 39 58 55 55 61 76 24 47
239 221 244 276 327 342 316 291 266 269 232 230 248 245 252 250 291 334 357 6 20 25 2 354 50 71 39 30 63 53 40 11 6 359 354 354 3 8 18 32 40 30 95 134 94 95 141 208 341
257 239 239 262 299 289 245 286 277 262 268 254 265 268 276 291 317 336 350 355 353 345 346 338 3 48 31 55 83 105 115 268 284 304 312 329 337 335 334 352 10 5 345 255 243 176 205 185 219
232 289 256 251 214 282 250 246 282 294 265 254 256 259 269 282 298 327 338 332 337 350 3 347 348 8 16 42 101 115 86 254 293 326 329 330 335 327 315 295 283 274 256 242 248 234 213 208 211
184 33 26 39 89 264 237 212 275 245 240 260 260 265 271 296 339 353 1 4 359 3 11 4 349 343 353 353 291 149 224 274 330 328 320 321 325 321 312 300 277 260 254 251 242 229 217 220 216
78 73 14 353 336 258 264 221 255 253 243 236 246 260 275 314 3 4 6 3 355 356 356 351 344 332 330 320 301 277 252 242 249 268 276 290 304 303 298 295 275 266 256 249 233 221 232 224 213
182 144 160 227 250 284 297 244 258 273 293 300 281 295 37 4 340 337 338 344 340 337 343 345 326 314 307 304 304 308 289 271 269 273 269 268 269 271 283 283 274 269 266 262 238 229 236 231 223
140 180 165 148 260 277 269 281 296 318 341 352 356 12 341 320 311 312 319 331 329 318 318 313 313 313 310 306 309 298 292 281 274 279 279 277 275 279 278 272 268 271 261 251 240 235 236 232 234
152 149 106 128 214 273 284 269 260 287 304 317 326 323 311 318 322 320 319 321 319 309 307 318 317 308 306 309 297 298 291 284 282 282 283 283 281 281 280 279 268 267 264 250 231 238 231 228 244
128 124 141 159 193 209 275 270 239 230 249 270 277 288 295 294 296 302 307 311 317 323 329 330 329 321 317 314 311 310 303 300 297 290 289 285 282 283 275 272 267 263 260 254 239 242 229 226 243
181 188 164 183 238 216 243 271 264 235 270 276 288 307 308 302 301 297 300 312 320 320 324 326 326 321 317 317 322 321 322 323 316 307 302 296 287 287 279 275 273 267 260 247 235 238 235 224 229